| time (UTC) | temp F | wind direction | speed knots | gust knots | rain 1hr in | rain 24hr in | rain mn in | humidity % | barometer mb |
| 20260506035004 | 67 | 124 | 0.0 | 1.7 | 0.00 | 0.01 | 0.01 | 54 | 1009.7 |
| 20260506034004 | 67 | 123 | 0.0 | 0.9 | 0.00 | 0.01 | 0.01 | 55 | 1009.7 |
| 20260506033004 | 67 | 148 | 0.0 | 1.7 | 0.00 | 0.01 | 0.01 | 55 | 1009.6 |
| 20260506032004 | 68 | 140 | 0.0 | 1.7 | 0.00 | 0.01 | 0.01 | 55 | 1009.6 |
| 20260506031004 | 68 | 13 | 0.0 | 0.9 | 0.00 | 0.01 | 0.01 | 55 | 1009.6 |
| 20260506030004 | 68 | 126 | 0.0 | 1.7 | 0.00 | 0.01 | 0.01 | 55 | 1009.6 |
| 20260506025004 | 69 | 134 | 0.0 | 0.9 | 0.00 | 0.01 | 0.01 | 55 | 1009.6 |
| 20260506024004 | 69 | 167 | 0.0 | 1.7 | 0.00 | 0.01 | 0.01 | 54 | 1009.7 |
| 20260506023004 | 69 | 123 | 0.0 | 0.9 | 0.00 | 0.01 | 0.01 | 54 | 1009.8 |
| 20260506022004 | 70 | 0 | 0.0 | 0.0 | 0.00 | 0.01 | 0.01 | 53 | 1009.6 |
| 20260506020004 | 70 | 170 | 0.0 | 0.9 | 0.00 | 0.01 | 0.01 | 51 | 1009.6 |
| 20260506015003 | 70 | 160 | 0.0 | 0.9 | 0.00 | 0.01 | 0.01 | 51 | 1009.6 |
| 20260506014005 | 70 | 0 | 0.0 | 0.0 | 0.00 | 0.01 | 0.01 | 52 | 1009.6 |
| 20260506013004 | 70 | 86 | 0.0 | 0.9 | 0.00 | 0.01 | 0.01 | 52 | 1009.4 |
| 20260506011003 | 71 | 221 | 0.0 | 2.6 | 0.00 | 0.01 | 0.01 | 51 | 1009.2 |
| 20260506010004 | 71 | 62 | 0.0 | 0.9 | 0.00 | 0.01 | 0.01 | 49 | 1009.0 |
| 20260506004004 | 72 | 48 | 0.0 | 0.9 | 0.00 | 0.01 | 0.01 | 47 | 1008.9 |
| 20260506003004 | 72 | 138 | 0.0 | 0.9 | 0.00 | 0.01 | 0.01 | 46 | 1008.7 |
| 20260506002003 | 72 | 138 | 0.0 | 2.6 | 0.00 | 0.01 | 0.01 | 46 | 1008.6 |
| 20260506001003 | 73 | 243 | 0.0 | 0.9 | 0.00 | 0.01 | 0.01 | 46 | 1008.5 |
| 20260506000004 | 73 | 119 | 0.0 | 1.7 | 0.00 | 0.01 | 0.01 | 46 | 1008.5 |
| 20260505235003 | 74 | 146 | 0.0 | 0.9 | 0.00 | 0.01 | 0.01 | 45 | 1008.4 |
| 20260505234003 | 74 | 145 | 0.0 | 0.9 | 0.00 | 0.01 | 0.01 | 44 | 1008.2 |
| 20260505233004 | 75 | 159 | 0.0 | 0.9 | 0.00 | 0.01 | 0.01 | 42 | 1008.3 |
| 20260505230004 | 76 | 184 | 0.0 | 1.7 | 0.00 | 0.01 | 0.01 | 40 | 1008.3 |
| 20260505225003 | 77 | 49 | 0.0 | 2.6 | 0.00 | 0.01 | 0.01 | 39 | 1008.1 |
| 20260505224004 | 77 | 0 | 0.0 | 0.0 | 0.00 | 0.01 | 0.01 | 40 | 1008.0 |
| 20260505223004 | 78 | 149 | 0.0 | 0.9 | 0.00 | 0.01 | 0.01 | 41 | 1007.9 |
| 20260505222003 | 78 | 183 | 0.0 | 1.7 | 0.00 | 0.01 | 0.01 | 39 | 1007.9 |
| 20260505221004 | 78 | 105 | 0.0 | 4.3 | 0.00 | 0.01 | 0.01 | 39 | 1007.9 |
| 20260505220004 | 78 | 138 | 0.0 | 0.9 | 0.00 | 0.01 | 0.01 | 41 | 1008.1 |
| 20260505215004 | 79 | 0 | 0.0 | 0.0 | 0.00 | 0.01 | 0.01 | 39 | 1008.2 |
| 20260505214004 | 79 | 120 | 0.0 | 0.9 | 0.00 | 0.01 | 0.01 | 39 | 1008.1 |
| 20260505213004 | 79 | 0 | 0.0 | 0.0 | 0.00 | 0.01 | 0.01 | 39 | 1008.1 |
| 20260505212004 | 79 | 16 | 0.0 | 6.1 | 0.00 | 0.01 | 0.01 | 38 | 1007.9 |
| 20260505210003 | 80 | 0 | 0.0 | 0.0 | 0.00 | 0.01 | 0.01 | 39 | 1007.8 |
| 20260505205003 | 80 | 322 | 0.0 | 3.5 | 0.00 | 0.01 | 0.01 | 38 | 1007.8 |
| 20260505204003 | 82 | 137 | 0.0 | 1.7 | 0.00 | 0.01 | 0.01 | 36 | 1007.8 |
| 20260505203004 | 83 | 98 | 0.0 | 0.9 | 0.00 | 0.01 | 0.01 | 36 | 1007.8 |
| 20260505201004 | 82 | 207 | 0.0 | 1.7 | 0.00 | 0.01 | 0.01 | 36 | 1007.9 |
| 20260505200004 | 81 | 171 | 0.0 | 6.1 | 0.00 | 0.01 | 0.01 | 36 | 1008.1 |
| 20260505195004 | 82 | 191 | 0.0 | 3.5 | 0.00 | 0.01 | 0.01 | 34 | 1007.9 |
| 20260505194004 | 82 | 0 | 0.0 | 0.0 | 0.00 | 0.01 | 0.01 | 33 | 1008.1 |
| 20260505193004 | 82 | 106 | 0.0 | 2.6 | 0.00 | 0.01 | 0.01 | 34 | 1007.9 |
| 20260505192004 | 81 | 72 | 0.0 | 3.5 | 0.00 | 0.01 | 0.01 | 35 | 1008.1 |
| 20260505191004 | 82 | 226 | 0.0 | 2.6 | 0.00 | 0.01 | 0.01 | 34 | 1008.2 |
| 20260505190004 | 81 | 185 | 0.0 | 8.7 | 0.00 | 0.01 | 0.01 | 35 | 1008.2 |
| 20260505185005 | 82 | 178 | 0.0 | 7.8 | 0.00 | 0.01 | 0.01 | 37 | 1008.3 |
| 20260505184004 | 82 | 344 | 0.0 | 3.5 | 0.00 | 0.01 | 0.01 | 33 | 1008.3 |
| 20260505183004 | 83 | 28 | 0.0 | 4.3 | 0.00 | 0.01 | 0.01 | 32 | 1008.3 |
| 20260505182004 | 83 | 169 | 0.0 | 4.3 | 0.00 | 0.01 | 0.01 | 38 | 1008.6 |
| 20260505180004 | 82 | 104 | 0.0 | 4.3 | 0.00 | 0.01 | 0.01 | 35 | 1009.0 |
| 20260505175004 | 81 | 214 | 0.0 | 3.5 | 0.00 | 0.01 | 0.01 | 41 | 1009.0 |
| 20260505174004 | 82 | 272 | 0.0 | 5.2 | 0.00 | 0.01 | 0.01 | 39 | 1009.0 |
| 20260505173004 | 81 | 8 | 0.0 | 0.9 | 0.00 | 0.01 | 0.01 | 43 | 1009.1 |
| 20260505172004 | 80 | 0 | 0.0 | 0.0 | 0.00 | 0.01 | 0.01 | 41 | 1009.3 |
| 20260505171004 | 80 | 146 | 0.0 | 0.9 | 0.00 | 0.01 | 0.01 | 43 | 1009.3 |
| 20260505165004 | 80 | 6 | 0.0 | 3.5 | 0.00 | 0.01 | 0.01 | 45 | 1009.6 |
| 20260505164004 | 80 | 0 | 0.0 | 0.0 | 0.00 | 0.01 | 0.01 | 43 | 1009.8 |
| 20260505163004 | 79 | 74 | 0.0 | 0.9 | 0.00 | 0.01 | 0.01 | 46 | 1010.0 |
| 20260505161004 | 79 | 0 | 0.0 | 0.0 | 0.00 | 0.01 | 0.01 | 43 | 1010.1 |
| 20260505153003 | 77 | 0 | 0.0 | 0.0 | 0.00 | 0.01 | 0.01 | 47 | 1010.3 |
| 20260505152004 | 76 | 339 | 0.0 | 0.9 | 0.00 | 0.01 | 0.01 | 46 | 1010.3 |
| 20260505151004 | 75 | 355 | 0.0 | 1.7 | 0.00 | 0.01 | 0.01 | 50 | 1010.4 |
| 20260505125003 | 63 | 110 | 0.0 | 0.9 | 0.00 | 0.01 | 0.01 | 21 | 1011.0 |
| 20260505124004 | 62 | 0 | 0.0 | 0.0 | 0.00 | 0.01 | 0.01 | 11 | 1010.8 |
| 20260505122004 | 60 | 0 | 0.0 | 0.0 | 0.00 | 0.01 | 0.01 | 1 | 1011.0 |
| 20260505120005 | 59 | 0 | 0.0 | 0.0 | 0.00 | 0.01 | 0.01 | 2 | 1010.8 |
| 20260505115004 | 58 | 151 | 0.0 | 1.7 | 0.00 | 0.01 | 0.01 | 1 | 1010.7 |
| 20260505114004 | 58 | 181 | 0.0 | 0.9 | 0.00 | 0.01 | 0.01 | 1 | 1010.6 |
| 20260505113004 | 57 | 0 | 0.0 | 0.0 | 0.00 | 0.01 | 0.01 | 1 | 1010.6 |
| 20260505112004 | 57 | 178 | 0.0 | 1.7 | 0.00 | 0.01 | 0.01 | 1 | 1010.6 |
| 20260505101004 | 54 | 0 | 0.0 | 0.0 | 0.01 | 0.01 | 0.01 | 1 | 1010.3 |
| 20260505095004 | 55 | 0 | 0.0 | 0.0 | 0.01 | 0.01 | 0.01 | 1 | 1010.4 |
| 20260505094004 | 56 | 0 | 0.0 | 0.0 | 0.01 | 0.01 | 0.01 | 1 | 1010.4 |
| 20260505093004 | 56 | 0 | 0.0 | 0.0 | 0.01 | 0.01 | 0.01 | 1 | 1010.2 |
| 20260505092004 | 56 | 0 | 0.0 | 0.0 | 0.00 | 0.00 | 0.00 | 1 | 1010.5 |
| 20260505091004 | 56 | 0 | 0.0 | 0.0 | 0.00 | 0.00 | 0.00 | 1 | 1010.4 |
| 20260505090004 | 56 | 0 | 0.0 | 0.0 | 0.00 | 0.00 | 0.00 | 1 | 1010.4 |
| 20260505085003 | 56 | 0 | 0.0 | 0.0 | 0.00 | 0.00 | 0.00 | 1 | 1010.3 |
| 20260505084003 | 56 | 0 | 0.0 | 0.0 | 0.00 | 0.00 | 0.00 | 1 | 1010.0 |
| 20260505082004 | 58 | 0 | 0.0 | 0.0 | 0.00 | 0.00 | 0.00 | 18 | 1009.7 |
| 20260505081003 | 58 | 0 | 0.0 | 0.0 | 0.00 | 0.00 | 0.00 | 40 | 1009.7 |
| 20260505080004 | 58 | 0 | 0.0 | 0.0 | 0.00 | 0.00 | 0.00 | 40 | 1009.7 |
| 20260505075003 | 58 | 0 | 0.0 | 0.0 | 0.00 | 0.00 | 0.00 | 43 | 1009.7 |
| 20260505074004 | 58 | 0 | 0.0 | 0.0 | 0.00 | 0.00 | 0.00 | 45 | 1009.8 |
| 20260505073004 | 58 | 0 | 0.0 | 0.0 | 0.00 | 0.00 | 0.00 | 46 | 1009.8 |
| 20260505072004 | 58 | 0 | 0.0 | 0.0 | 0.00 | 0.00 | 0.00 | 47 | 1009.7 |
| 20260505071004 | 58 | 0 | 0.0 | 0.0 | 0.00 | 0.00 | 0.00 | 46 | 1009.7 |
| 20260505070004 | 58 | 0 | 0.0 | 0.0 | 0.00 | 0.00 | 0.00 | 47 | 1009.8 |
| 20260505065003 | 58 | 0 | 0.0 | 0.0 | 0.00 | 0.00 | 0.00 | 47 | 1009.8 |
| 20260505064004 | 58 | 0 | 0.0 | 0.0 | 0.00 | 0.00 | 0.00 | 48 | 1009.8 |
| 20260505063003 | 58 | 0 | 0.0 | 0.0 | 0.00 | 0.00 | 0.00 | 49 | 1009.8 |
| 20260505062005 | 58 | 0 | 0.0 | 0.0 | 0.00 | 0.00 | 0.00 | 51 | 1009.9 |
| 20260505060004 | 57 | 0 | 0.0 | 0.0 | 0.00 | 0.00 | 0.00 | 51 | 1009.9 |
| 20260505055004 | 57 | 0 | 0.0 | 0.0 | 0.00 | 0.00 | 0.00 | 51 | 1009.7 |
| 20260505054003 | 57 | 0 | 0.0 | 0.0 | 0.00 | 0.00 | 0.00 | 51 | 1009.8 |
| 20260505053004 | 57 | 0 | 0.0 | 0.0 | 0.00 | 0.00 | 0.00 | 52 | 1009.8 |
| 20260505052003 | 57 | 0 | 0.0 | 0.0 | 0.00 | 0.00 | 0.00 | 54 | 1009.9 |
| 20260505051004 | 58 | 0 | 0.0 | 0.0 | 0.00 | 0.00 | 0.00 | 56 | 1009.8 |
| 20260505041004 | 59 | 168 | 0.0 | 0.9 | 0.00 | 0.00 | 0.00 | 56 | 1009.7 |
| 20260505040005 | 59 | 142 | 0.0 | 0.9 | 0.00 | 0.00 | 0.00 | 56 | 1009.7 |